O'Neill, NE

10:43 AM CDT on September 25, 2017 (GMT -0500)
The O'Neill Municipal-Baker

Weather History for KONL - November, 2013

Change the Weather History Date:

Wednesday, November 13, 2013

  Actual Average Record
Temperature  
Mean Temperature 47 °F -  
Max Temperature 65 °F 46 °F 78 °F (1999)
Min Temperature 29 °F 24 °F -7 °F (1986)
Degree Days  
Heating Degree Days 18    
Moisture  
Dew Point 28 °F    
Average Humidity 58    
Maximum Humidity 82    
Minimum Humidity 24    
Precipitation  
Precipitation 0.00 in - - ()
Sea Level Pressure  
Sea Level Pressure 30.08 in    
Wind  
Wind Speed 10 mph (SSW)    
Max Wind Speed 18 mph    
Max Gust Speed 23 mph    
Visibility 10 miles    
Events      
Averages and records for this station are not official NWS values.
T = Trace of Precipitation, MM = Missing Value Source: NWS Daily Summary

Daily Weather History Graph

Daily Weather History Graph

Search for Another Location

Airport or City:

Trip Planner

Search our weather history database for the weather conditions in past years. The results will help you decide how hot, cold, wet, or windy it might be!

Date:

Astronomy

Nov. 13, 2013 Rise Set
Actual Time 7:23 AM CST 5:14 PM CST
Civil Twilight 6:53 AM CST 5:44 PM CST
Nautical Twilight 6:19 AM CST 6:18 PM CST
Astronomical Twilight 5:46 AM CST 6:51 PM CST
Moon 3:06 PM CST (11/13) 3:13 AM CST (11/13)
Length of Visible Light 10h 50m
Length of Day
9h 50m
Waxing Gibbous, 85% of the Moon is Illuminated
Nov 13
Waxing Gibbous
Nov 17
Full
Nov 25
Last Quarter
Dec 2
New
Dec 9
First Quarter

Hourly Weather History & Observations

Time (CST) Temp. Windchill Dew Point Humidity Pressure Visibility Wind Dir Wind Speed Gust Speed Precip Events Conditions
12:15 AM 30.6 °F 21.8 °F 23.5 °F 75% 30.35 in 10.0 mi South 10.4 mph - N/A   Clear
12:35 AM 30.6 °F 21.2 °F 23.7 °F 76% 30.35 in 10.0 mi South 11.5 mph 17.3 mph N/A   Clear
12:55 AM 30.2 °F 21.3 °F 23.7 °F 77% 30.33 in 10.0 mi SSW 10.4 mph - N/A   Clear
1:15 AM 30.9 °F 21.2 °F 24.1 °F 76% 30.32 in 10.0 mi South 12.7 mph 16.1 mph N/A   Clear
1:35 AM 31.1 °F 21.9 °F 23.9 °F 75% 30.31 in 10.0 mi South 11.5 mph - N/A   Clear
1:55 AM 29.5 °F 20.4 °F 23.5 °F 79% 30.30 in 10.0 mi South 10.4 mph - N/A   Clear
2:15 AM 29.5 °F 20.4 °F 23.9 °F 80% 30.30 in 10.0 mi SSW 10.4 mph - N/A   Clear
2:35 AM 30.6 °F 21.8 °F 24.8 °F 79% 30.29 in 10.0 mi SSW 10.4 mph - N/A   Clear
2:55 AM 30.9 °F 22.2 °F 24.8 °F 78% 30.28 in 10.0 mi SSW 10.4 mph - N/A   Clear
3:15 AM 31.6 °F 23.1 °F 25.2 °F 77% 30.27 in 10.0 mi SSW 10.4 mph - N/A   Clear
3:35 AM 31.6 °F 22.6 °F 25.3 °F 78% 30.26 in 10.0 mi SSW 11.5 mph - N/A   Clear
3:55 AM 31.5 °F 22.3 °F 25.3 °F 78% 30.25 in 10.0 mi SSW 11.5 mph - N/A   Clear
4:15 AM 30.4 °F 22.9 °F 24.8 °F 80% 30.24 in 10.0 mi South 8.1 mph - N/A   Clear
4:35 AM 29.8 °F 21.5 °F 24.8 °F 81% 30.23 in 10.0 mi South 9.2 mph - N/A   Clear
4:55 AM 30.2 °F 21.9 °F 25.3 °F 82% 30.22 in 10.0 mi South 9.2 mph - N/A   Clear
5:15 AM 30.6 °F 22.4 °F 25.5 °F 82% 30.21 in 10.0 mi South 9.2 mph - N/A   Clear
5:35 AM 31.8 °F 23.3 °F 26.2 °F 80% 30.20 in 10.0 mi South 10.4 mph - N/A   Clear
5:55 AM 32.2 °F 22.3 °F 26.6 °F 80% 30.19 in 10.0 mi SSW 13.8 mph - N/A   Clear
6:15 AM 32.0 °F 23.0 °F 26.6 °F 80% 30.18 in 10.0 mi South 11.5 mph - N/A   Clear
6:35 AM 32.0 °F 24.2 °F 26.6 °F 80% 30.17 in 10.0 mi South 9.2 mph - N/A   Clear
6:55 AM 32.7 °F 23.4 °F 27.0 °F 79% 30.17 in 10.0 mi SSW 12.7 mph - N/A   Clear
7:15 AM 32.5 °F 23.2 °F 26.6 °F 79% 30.17 in 10.0 mi SSW 12.7 mph - N/A   Clear
7:35 AM 32.4 °F 23.5 °F 26.6 °F 79% 30.17 in 10.0 mi SSW 11.5 mph - N/A   Clear
7:55 AM 32.9 °F 24.1 °F 26.6 °F 78% 30.16 in 10.0 mi SSW 11.5 mph - N/A   Clear
8:15 AM 33.6 °F 24.1 °F 27.0 °F 77% 30.15 in 10.0 mi SSW 13.8 mph - N/A   Clear
8:35 AM 35.1 °F 25.9 °F 27.5 °F 74% 30.14 in 10.0 mi SSW 13.8 mph - N/A   Clear
8:55 AM 37.2 °F 29.6 °F 27.9 °F 69% 30.14 in 10.0 mi SSW 11.5 mph - N/A   Clear
9:15 AM 39.4 °F 31.8 °F 28.4 °F 65% 30.14 in 10.0 mi SSW 12.7 mph - N/A   Clear
9:35 AM 41.9 °F 34.3 °F 29.1 °F 61% 30.12 in 10.0 mi SSW 15.0 mph 18.4 mph N/A   Clear
9:55 AM 44.6 °F 37.8 °F 29.3 °F 55% 30.11 in 10.0 mi SSW 15.0 mph 18.4 mph N/A   Clear
10:15 AM 47.5 °F - 29.5 °F 50% 30.11 in 10.0 mi SSW 13.8 mph - N/A   Clear
10:35 AM 50.2 °F - 29.5 °F 45% 30.10 in 10.0 mi SW 18.4 mph - N/A   Clear
10:55 AM 51.8 °F - 29.1 °F 42% 30.09 in 10.0 mi SW 15.0 mph 23.0 mph N/A   Clear
11:15 AM 53.4 °F - 28.8 °F 39% 30.08 in 10.0 mi SW 17.3 mph - N/A   Clear
11:35 AM 55.2 °F - 28.6 °F 36% 30.07 in 10.0 mi SSW 15.0 mph 19.6 mph N/A   Clear
11:55 AM 56.7 °F - 28.0 °F 33% 30.05 in 10.0 mi SSW 16.1 mph - N/A   Clear
12:15 PM 58.3 °F - 27.7 °F 31% 30.04 in 10.0 mi SW 15.0 mph 19.6 mph N/A   Clear
12:35 PM 59.9 °F - 27.5 °F 29% 30.03 in 10.0 mi SW 13.8 mph 17.3 mph N/A   Clear
12:55 PM 61.5 °F - 27.9 °F 28% 30.02 in 10.0 mi SSW 11.5 mph - N/A   Clear
1:15 PM 62.2 °F - 27.5 °F 27% 30.01 in 10.0 mi SSW 16.1 mph - N/A   Clear
1:35 PM 63.1 °F - 28.0 °F 27% 30.00 in 10.0 mi SSW 11.5 mph - N/A   Clear
1:55 PM 63.7 °F - 28.0 °F 26% 30.00 in 10.0 mi SSW 12.7 mph - N/A   Clear
2:15 PM 64.4 °F - 28.6 °F 26% 29.99 in 10.0 mi SSW 9.2 mph - N/A   Clear
2:35 PM 64.9 °F - 28.2 °F 25% 29.98 in 10.0 mi SW 10.4 mph - N/A   Clear
2:55 PM 65.3 °F - 27.5 °F 24% 29.97 in 10.0 mi SW 11.5 mph - N/A   Clear
3:15 PM 64.9 °F - 27.3 °F 24% 29.96 in 10.0 mi SSW 10.4 mph - N/A   Clear
3:35 PM 64.6 °F - 27.1 °F 24% 29.96 in 10.0 mi SSW 9.2 mph - N/A   Clear
3:55 PM 63.9 °F - 27.5 °F 25% 29.96 in 10.0 mi SSW 8.1 mph - N/A   Clear
4:15 PM 62.6 °F - 28.2 °F 27% 29.96 in 10.0 mi SSW 8.1 mph - N/A   Clear
4:35 PM 60.6 °F - 28.6 °F 30% 29.96 in 10.0 mi SSW 6.9 mph - N/A   Clear
4:55 PM 57.7 °F - 29.3 °F 34% 29.96 in 10.0 mi SSW 3.5 mph - N/A   Clear
5:15 PM 56.3 °F - 28.9 °F 35% 29.96 in 10.0 mi SW 3.5 mph - N/A   Clear
5:35 PM 55.0 °F - 29.1 °F 37% 29.96 in 10.0 mi WSW 3.5 mph - N/A   Clear
5:55 PM 54.1 °F - 29.1 °F 38% 29.97 in 10.0 mi Calm Calm - N/A   Clear
6:15 PM 54.1 °F - 28.6 °F 37% 29.97 in 10.0 mi SSW 3.5 mph - N/A   Clear
6:35 PM 47.3 °F - 30.0 °F 51% 29.96 in 10.0 mi SSW 4.6 mph - N/A   Clear
6:55 PM 42.1 °F 38.4 °F 30.0 °F 62% 29.96 in 10.0 mi South 5.8 mph - N/A   Clear
7:15 PM 42.8 °F 39.3 °F 29.8 °F 60% 29.96 in 10.0 mi South 5.8 mph - N/A   Clear
7:35 PM 41.2 °F 37.3 °F 29.5 °F 63% 29.96 in 10.0 mi SW 5.8 mph - N/A   Clear
7:55 PM 43.5 °F 40.1 °F 29.8 °F 59% 29.95 in 10.0 mi SW 5.8 mph - N/A   Clear
8:15 PM 42.1 °F 37.7 °F 29.7 °F 61% 29.95 in 10.0 mi SSW 6.9 mph - N/A   Clear
8:35 PM 38.8 °F 33.8 °F 29.5 °F 69% 29.93 in 10.0 mi South 6.9 mph - N/A   Clear
8:55 PM 39.0 °F 36.8 °F 29.7 °F 69% 29.93 in 10.0 mi WSW 3.5 mph - N/A   Clear
9:15 PM 38.7 °F 33.6 °F 30.0 °F 71% 29.93 in 10.0 mi SW 6.9 mph - N/A   Clear
9:35 PM 40.3 °F 37.1 °F 30.2 °F 67% 29.92 in 10.0 mi WSW 4.6 mph - N/A   Clear
9:55 PM 41.9 °F 40.0 °F 31.1 °F 66% 29.92 in 10.0 mi WSW 3.5 mph - N/A   Clear
10:15 PM 39.9 °F 35.1 °F 30.6 °F 69% 29.93 in 10.0 mi West 6.9 mph - N/A   Clear
10:35 PM 39.6 °F 34.7 °F 30.4 °F 70% 29.93 in 10.0 mi West 6.9 mph - N/A   Clear
10:55 PM 41.0 °F 35.8 °F 30.4 °F 66% 29.93 in 10.0 mi WNW 8.1 mph - N/A   Clear
11:15 PM 40.3 °F 38.2 °F 29.8 °F 66% 29.93 in 10.0 mi West 3.5 mph - N/A   Clear
11:35 PM 39.6 °F 35.4 °F 29.3 °F 67% 29.92 in 10.0 mi WNW 5.8 mph - N/A   Clear
11:55 PM 38.7 °F 34.3 °F 29.3 °F 69% 29.91 in 10.0 mi WNW 5.8 mph - N/A   Clear